[[{"header":{"parameterUnit":"m.s-1","parameterCategory":1,"la1":30.2991,"la2":30.254,"lo1":-89.0895,"lo2":-89.0444,"dy":0.0017,"dx":0.0017,"nx":28,"ny":28,"refTime":"2023-09-06T09:00:00:Z","depth":0,"parameterNumber":2,"parameterNumberName":"U-component_of_WINDS"},"data":[0,0,0,0,0,0,0,0,0,0,0,0,0,0,0,0,0,0,0,0,0,0,0,0,0,0,0,0,0,0,0,0,0,0,0,0,0,0,0,0,0,0,0,0,0,0,0,0,0,0,0,0,0,0,0,0,0,0,-1.9333,-1.9334,0,-1.9417,-1.9418,-1.9419,-1.9396,-1.9394,-1.9392,-1.9391,-1.9477,-1.9481,-1.9485,0,0,0,0,0,0,0,0,0,0,0,0,0,-1.9153,-1.9157,-1.9333,-1.9334,-1.9335,-1.9417,-1.9418,-1.942,-1.9396,-1.9394,-1.9392,-1.939,-1.9476,-1.9481,-1.9485,0,0,0,0,0,0,0,0,0,0,0,0,0,-1.9234,-1.9158,-1.9333,-1.9333,-1.9334,-1.9417,-1.9418,-1.942,-1.9396,-1.9394,-1.9391,-1.9389,-1.9475,-1.948,-1.9486,-1.9574,0,0,-1.9504,-1.9507,0,0,0,0,0,0,0,0,-1.9229,-1.9241,-1.9332,-1.9334,-1.9335,-1.9393,-1.9387,-1.9472,-1.9397,-1.9373,-1.9391,-1.9388,-1.9452,-1.9459,-1.9481,-1.9578,-1.9582,-1.9505,-1.9508,-1.9511,-1.9512,0,0,0,0,0,0,0,-1.9224,-1.9237,-1.9367,-1.9334,-1.9335,-1.933,-1.9338,-1.9403,-1.9426,-1.9375,-1.9373,-1.9383,-1.9452,-1.9475,-1.9482,-1.9583,-1.9504,-1.951,-1.9513,-1.9515,-1.9757,-1.976,0,0,0,0,0,0,-1.9217,-1.9232,-1.9364,-1.9369,-1.9275,-1.9335,-1.9345,-1.9377,-1.9425,-1.943,-1.9386,-1.9382,-1.9466,-1.9476,-1.9485,-1.9592,-1.9511,-1.9516,-1.9519,-1.9754,-1.9758,-1.9761,0,0,0,0,0,0,-1.9214,-1.9229,-1.9361,-1.93,-1.9317,-1.9341,-1.9378,-1.938,-1.9403,-1.9433,-1.9437,-1.9405,-1.9465,-1.9477,-1.9552,-1.9594,-1.9519,-1.9524,-1.9751,-1.9755,-1.9759,-1.9804,0,0,0,0,0,0,-1.9209,-1.9228,-1.9261,-1.9301,-1.932,-1.9426,-1.938,-1.9384,-1.9414,-1.941,-1.9452,-1.9457,-1.9464,-1.9544,-1.9558,-1.9601,-1.9529,-1.9747,-1.9753,-1.9758,-1.9799,-1.981,-1.9819,0,0,0,0,0,-1.9202,-1.9271,-1.9263,-1.9279,-1.9362,-1.9428,-1.9439,-1.9445,-1.9417,-1.9451,-1.947,-1.9456,-1.9587,-1.9551,-1.9567,-1.9613,-1.9745,-1.9751,-1.9758,-1.9795,-1.9808,-1.9819,0,0,0,0,0,0,-1.9235,-1.9276,-1.9268,-1.9351,-1.9386,-1.9424,-1.9466,-1.9458,-1.9502,-1.9496,-1.9502,-1.9512,-1.9589,-1.9608,-1.9567,-1.9701,-1.9662,-1.9672,-1.9685,-1.9697,-1.9707,-1.97,-1.9533,0,0,0,0,0,-1.9252,-1.9302,-1.9335,-1.9405,-1.9423,-1.9442,-1.9471,-1.9473,-1.9509,-1.9524,-1.9549,-1.9585,-1.9635,-1.9667,-1.9714,-1.9802,-1.9811,-1.9842,-1.9851,-1.9859,-1.9868,-1.9916,-1.993,-1.9782,-1.9782,-1.9782,0,0,-1.9287,-1.9316,-1.9347,-1.9413,-1.944,-1.9492,-1.9455,-1.9511,-1.955,-1.9533,-1.9605,-1.9624,-1.9665,-1.9747,-1.9785,-1.9766,-1.9911,-1.9867,-1.9874,-1.9878,-1.9924,-1.9938,-1.9951,-1.9787,-1.9786,-1.9785,0,0,-1.9378,-1.9405,-1.9467,-1.9495,-1.9537,-1.9549,-1.9564,-1.9603,-1.9615,-1.9688,-1.9676,-1.9723,-1.9808,-1.9838,-1.9864,-1.9968,-1.9957,-1.9983,-2.0034,-2.0081,-2.0093,-2.0103,-2.014,-2.0154,-1.9992,-1.9992,-1.9992,0,-1.9417,-1.9494,-1.9499,-1.9557,-1.9587,-1.9574,-1.9637,-1.9664,-1.9719,-1.974,-1.9719,-1.9826,-1.9853,-1.9941,-1.9967,-1.9989,-2.0006,-1.9978,-2.0091,-2.0101,-2.0111,-2.0146,-2.016,-1.9995,-1.9995,-1.9994,-1.9994,0,-1.954,-1.9594,-1.9639,-1.9693,-1.9727,-1.9787,-1.9802,-1.9837,-1.9836,-1.985,-1.9925,-1.9957,-2.001,-2.0032,-2.0031,-2.0121,-2.0108,-2.0089,-2.005,-2.0128,-2.0161,-2.0175,-1.9999,-1.9998,-1.9997,-1.9996,0,0,-1.9653,-1.971,-1.9726,-1.975,-1.9796,-1.9838,-1.9898,-1.9951,-1.998,-2.0019,-2.007,-2.0143,-2.0125,-2.0155,-2.0158,-2.02,-2.028,-2.0175,-2.0176,-2.0194,-2.0382,-2.0396,-2.0411,-2.0273,-2.0276,-2.0278,-2.0378,0,-1.9748,-1.9853,-1.986,-1.9955,-2.0005,-1.9994,-2.0046,-2.008,-2.0096,-2.0141,-2.0158,-2.021,-2.0183,-2.0201,-2.0242,-2.0262,-2.0318,-2.0255,-2.0321,-2.0323,-2.031,-2.0429,-2.0444,-2.0537,-2.0391,-2.0394,-2.0395,0,-1.9872,-1.9915,-2.0015,-2.0055,-2.0076,-2.0123,-2.0172,-2.0215,-2.0254,-2.0262,-2.0296,-2.0294,-2.0356,-2.0315,-2.0401,-2.0358,-2.0386,-2.04,-2.0403,-2.0409,-2.0363,-2.0438,-2.0567,-2.0581,-2.0416,-2.0414,-2.0413,0,-1.9945,-2.0028,-2.0098,-2.012,-2.0167,-2.02,-2.0222,-2.0258,-2.0289,-2.0333,-2.0353,-2.0403,-2.043,-2.047,-2.0481,-2.045,-2.0567,-2.0527,-2.0576,-2.0575,-2.06,-2.0598,-2.0735,-2.0619,-2.0618,-2.0618,-2.0618,0,-2.005,-2.0112,-2.0131,-2.0175,-2.0244,-2.0252,-2.032,-2.0339,-2.0372,-2.0419,-2.0413,-2.0458,-2.047,-2.0517,-2.0527,-2.0597,-2.0609,-2.0618,-2.062,-2.0619,-2.0617,-2.0636,-2.063,-2.0622,-2.0621,-2.062,-2.062,0,-2.0142,-2.0158,-2.0234,-2.0273,-2.0285,-2.0334,-2.0367,-2.041,-2.0425,-2.0485,-2.0499,-2.0523,-2.0579,-2.0594,-2.066,-2.0667,-2.0749,-2.0745,-2.0736,-2.0736,-2.0784,-2.0779,-2.0937,-2.0958,-2.0828,-2.0829,-2.083,0,-2.0208,-2.0255,-2.0299,-2.0331,-2.0354,-2.0404,-2.0436,-2.0446,-2.048,-2.0528,-2.0564,-2.0619,-2.0663,-2.0752,-2.0776,-2.0827,-2.0824,-2.0876,-2.0831,-2.0829,-2.0825,-2.0821,-2.0826,-2.0884,-2.0885,-2.0886,-2.0887,0,-2.0323,-2.0329,-2.0375,-2.0425,-2.0463,-2.0502,-2.054,-2.0566,-2.0582,-2.062,-2.0677,-2.0711,-2.0779,-2.0833,-2.0885,-2.0908,-2.0901,-2.0901,-2.0915,-2.0914,-2.0907,-2.0911,-2.0758,-2.0897,-2.0896,-2.0896,-2.0895,-2.0895,-2.0404,-2.0446,-2.0484,-2.0536,-2.0565,-2.0601,-2.0642,-2.0663,-2.071,-2.0766,-2.0769,-2.0831,-2.0869,-2.0938,-2.0964,-2.1012,-2.0997,-2.1017,-2.1022,-2.1027,-2.1031,-2.0899,-2.1022,-2.1021,-2.1021,-2.1021,-2.1021,0,-2.0519,-2.0543,-2.0591,-2.0644,-2.0685,-2.0675,-2.0716,-2.0751,-2.0805,-2.0842,-2.0885,-2.0951,-2.1004,-2.1032,-2.1085,-2.1119,-2.1117,-2.1132,-2.113,-2.1135,-2.1042,-2.1024,-2.1133,-2.1133,-2.1133,-2.1133,-2.1133,-2.1133,-2.0584,-2.0653,-2.0664,-2.0749,-2.0772,-2.0832,-2.0857,-2.089,-2.0919,-2.0992,-2.1036,-2.1054,-2.1088,-2.1143,-2.1192,-2.1198,-2.1218,-2.1236,-2.1241,-2.1153,-2.1141,-2.1131,-2.1114,-2.124,-2.124,-2.133,-2.1331,-2.1332]},{"header":{"parameterUnit":"m.s-1","parameterCategory":1,"la1":30.2991,"la2":30.254,"lo1":-89.0895,"lo2":-89.0444,"dy":0.0017,"dx":0.0017,"nx":28,"ny":28,"refTime":"2023-09-06T09:00:00:Z","depth":0,"parameterNumber":3,"parameterNumberName":"V-component_of_WINDS"},"data":[0,0,0,0,0,0,0,0,0,0,0,0,0,0,0,0,0,0,0,0,0,0,0,0,0,0,0,0,0,0,0,0,0,0,0,0,0,0,0,0,0,0,0,0,0,0,0,0,0,0,0,0,0,0,0,0,0,0,-0.0087,-0.0087,0,-0.0084,-0.0084,-0.0084,-0.0128,-0.0129,-0.013,-0.0131,-0.0126,-0.0125,-0.0124,0,0,0,0,0,0,0,0,0,0,0,0,0,-0.0128,-0.0127,-0.0087,-0.0087,-0.0087,-0.0084,-0.0084,-0.0084,-0.0128,-0.0129,-0.013,-0.0132,-0.0127,-0.0125,-0.0124,0,0,0,0,0,0,0,0,0,0,0,0,0,-0.0116,-0.0127,-0.0087,-0.0109,-0.0111,-0.0084,-0.0084,-0.0084,-0.0127,-0.0129,-0.0131,-0.0133,-0.0127,-0.0125,-0.0124,-0.0076,0,0,-0.0118,-0.0117,0,0,0,0,0,0,0,0,-0.0117,-0.0115,-0.0106,-0.0107,-0.0109,-0.0108,-0.0097,-0.0081,-0.0127,-0.0121,-0.0131,-0.0133,-0.0119,-0.0118,-0.0113,-0.0076,-0.0075,-0.0118,-0.0116,-0.0116,-0.0115,0,0,0,0,0,0,0,-0.0118,-0.0115,-0.0086,-0.0105,-0.0108,-0.0117,-0.0118,-0.0094,-0.011,-0.0121,-0.0125,-0.0124,-0.012,-0.0115,-0.0113,-0.0075,-0.0118,-0.0116,-0.0115,-0.0114,0.0005,0.0007,0,0,0,0,0,0,-0.0116,-0.0115,-0.0086,-0.0086,-0.0118,-0.0115,-0.0115,-0.0107,-0.011,-0.0112,-0.0122,-0.0126,-0.0117,-0.0115,-0.0113,-0.0056,-0.0116,-0.0114,-0.0113,0.0003,0.0005,0.0007,0,0,0,0,0,0,-0.0117,-0.0113,-0.0086,-0.0101,-0.0099,-0.0112,-0.0102,-0.0106,-0.01,-0.0111,-0.0113,-0.0114,-0.0118,-0.0116,-0.0084,-0.0056,-0.0113,-0.0111,0.0,0.0003,0.0006,0.0058,0,0,0,0,0,0,-0.0118,-0.0113,-0.0096,-0.0101,-0.0098,-0.0058,-0.0101,-0.0104,-0.0097,-0.0102,-0.0104,-0.0106,-0.012,-0.0087,-0.0082,-0.0055,-0.011,-0.0002,0.0002,0.0005,0.0054,0.0063,0.007,0,0,0,0,0,-0.0119,-0.0082,-0.0095,-0.0091,-0.0077,-0.0057,-0.0055,-0.0072,-0.0095,-0.0077,-0.0083,-0.0106,-0.006,-0.0083,-0.0079,-0.005,-0.0004,0.0001,0.0005,0.005,0.0061,0.007,0,0,0,0,0,0,-0.0074,-0.0083,-0.0098,-0.0061,-0.0058,-0.0064,-0.0043,-0.0061,-0.0051,-0.0055,-0.0076,-0.0076,-0.0041,-0.0042,-0.0068,-0.0002,-0.0036,-0.003,-0.0003,0.0007,0.0015,0.0015,-0.0108,0,0,0,0,0,-0.0059,-0.0043,-0.0051,-0.0018,-0.0016,-0.0029,-0.0021,-0.0034,-0.0031,-0.003,-0.0034,-0.003,-0.0014,-0.0004,0.001,0.0054,0.0054,0.0076,0.0084,0.0091,0.0096,0.0122,0.0132,0.0022,0.0022,0.0022,0,0,-0.003,-0.0033,-0.0021,-0.0009,-0.0008,0.0011,-0.0028,-0.0007,0.0007,-0.0027,0.0003,0.0001,0.0004,0.0043,0.006,0.0043,0.0127,0.0097,0.0102,0.0104,0.0128,0.0138,0.0147,0.0025,0.0025,0.0024,0,0,0.0033,0.0032,0.0061,0.0063,0.0066,0.0057,0.0064,0.0061,0.0058,0.0088,0.0064,0.0081,0.0108,0.0112,0.0118,0.0187,0.0167,0.0192,0.0234,0.0259,0.0268,0.0276,0.0302,0.0311,0.0197,0.0197,0.0197,0,0.007,0.0096,0.0078,0.0101,0.0108,0.0079,0.0109,0.0112,0.0119,0.0125,0.0106,0.0141,0.0141,0.0182,0.0199,0.0204,0.0213,0.0191,0.0268,0.0276,0.0282,0.0307,0.0317,0.02,0.02,0.02,0.0199,0,0.0142,0.0161,0.0184,0.0192,0.0202,0.0228,0.0215,0.0228,0.0215,0.0209,0.0241,0.0241,0.0255,0.0264,0.025,0.0303,0.0293,0.0271,0.0237,0.0296,0.0319,0.0328,0.0205,0.0204,0.0203,0.0202,0,0,0.0231,0.0231,0.024,0.0244,0.0246,0.0261,0.0288,0.0302,0.0314,0.0321,0.0343,0.0368,0.0349,0.0356,0.0344,0.0366,0.0423,0.0342,0.0342,0.0358,0.0484,0.05,0.0511,0.0411,0.0412,0.0414,0.0484,0,0.0294,0.0338,0.0324,0.0369,0.0388,0.0362,0.0386,0.039,0.0387,0.0403,0.0399,0.0417,0.039,0.0394,0.0415,0.0412,0.0448,0.0406,0.0433,0.0434,0.0433,0.0523,0.054,0.0606,0.0493,0.0494,0.0495,0,0.0372,0.0383,0.043,0.0432,0.0439,0.046,0.0473,0.0489,0.0495,0.0491,0.05,0.0484,0.0512,0.0479,0.0519,0.0491,0.0501,0.0502,0.0504,0.0506,0.0468,0.0528,0.0626,0.0637,0.0509,0.0508,0.0507,0,0.0434,0.046,0.0493,0.0497,0.0499,0.0515,0.0517,0.0522,0.0532,0.0544,0.0551,0.0567,0.0575,0.0588,0.0578,0.0554,0.062,0.0585,0.0619,0.0619,0.0633,0.0633,0.0735,0.064,0.064,0.0639,0.0639,0,0.0505,0.0535,0.0521,0.0541,0.0575,0.056,0.0594,0.0593,0.0598,0.0619,0.0598,0.0618,0.0603,0.0622,0.0615,0.065,0.0654,0.0652,0.065,0.0654,0.0655,0.0661,0.0656,0.0642,0.0641,0.0641,0.064,0,0.0579,0.0571,0.0605,0.0605,0.0606,0.0631,0.0632,0.0652,0.0648,0.0674,0.068,0.0673,0.0695,0.0687,0.071,0.0705,0.0751,0.0742,0.0749,0.0746,0.0781,0.0778,0.0891,0.0906,0.0801,0.0802,0.0802,0,0.0625,0.0648,0.0652,0.0664,0.0668,0.0688,0.0699,0.0686,0.0698,0.0709,0.0728,0.0748,0.0764,0.0801,0.0799,0.0818,0.081,0.0849,0.0812,0.0817,0.0812,0.0811,0.0814,0.0856,0.0857,0.0858,0.0859,0,0.0708,0.0704,0.072,0.0736,0.075,0.0762,0.0772,0.0783,0.0771,0.0787,0.0809,0.0822,0.0847,0.0868,0.0886,0.0889,0.0873,0.087,0.0879,0.0884,0.0887,0.0887,0.0769,0.0867,0.0866,0.0866,0.0865,0.0865,0.077,0.079,0.0797,0.0817,0.0823,0.0834,0.0853,0.0852,0.0871,0.089,0.0881,0.0908,0.0917,0.0939,0.0945,0.0967,0.0953,0.0965,0.0968,0.0972,0.0977,0.0884,0.097,0.097,0.097,0.097,0.097,0,0.0853,0.0856,0.0875,0.089,0.0907,0.089,0.0902,0.0917,0.0941,0.095,0.0967,0.0994,0.1016,0.1017,0.1038,0.1056,0.1049,0.1062,0.106,0.1062,0.0988,0.0979,0.1067,0.1067,0.1067,0.1067,0.1067,0.1067,0.0898,0.0932,0.0928,0.0967,0.097,0.0996,0.1005,0.1016,0.1023,0.1055,0.1073,0.1074,0.1081,0.1103,0.1123,0.1123,0.1132,0.1148,0.1145,0.1076,0.1067,0.1057,0.1048,0.1149,0.115,0.1217,0.1217,0.1218]}]]